[[{"header":{"parameterUnit":"m.s-1","parameterCategory":1,"la1":30.2991,"la2":30.254,"lo1":-89.0895,"lo2":-89.0444,"dy":0.0017,"dx":0.0017,"nx":28,"ny":28,"refTime":"2023-08-28T09:00:00:Z","depth":0,"parameterNumber":2,"parameterNumberName":"U-component_of_WINDS"},"data":[0,0,0,0,0,0,0,0,0,0,0,0,0,0,0,0,0,0,0,0,0,0,0,0,0,0,0,0,0,0,0,0,0,0,0,0,0,0,0,0,0,0,0,0,0,0,0,0,0,0,0,0,0,0,0,0,0,0,1.338,1.338,0,1.3402,1.3402,1.3403,1.3383,1.3382,1.3381,1.3381,1.3403,1.3404,1.3405,0,0,0,0,0,0,0,0,0,0,0,0,0,1.332,1.3321,1.338,1.338,1.3381,1.3402,1.3402,1.3403,1.3383,1.3382,1.3381,1.338,1.3402,1.3404,1.3406,0,0,0,0,0,0,0,0,0,0,0,0,0,1.3344,1.3321,1.338,1.3373,1.3373,1.3402,1.3402,1.3403,1.3383,1.3382,1.3381,1.338,1.3402,1.3404,1.3406,1.3442,0,0,1.3412,1.3413,0,0,0,0,0,0,0,0,1.3343,1.3346,1.3374,1.3374,1.3374,1.3389,1.3389,1.3416,1.3384,1.3379,1.3381,1.3379,1.3399,1.3401,1.3408,1.3443,1.3444,1.3412,1.3413,1.3414,1.3415,0,0,0,0,0,0,0,1.3341,1.3345,1.3389,1.3375,1.3374,1.3369,1.3371,1.3394,1.3396,1.338,1.3378,1.3381,1.3399,1.3406,1.3408,1.3444,1.3412,1.3414,1.3415,1.3416,1.351,1.3512,0,0,0,0,0,0,1.334,1.3344,1.3388,1.3389,1.3355,1.3371,1.3374,1.3385,1.3395,1.3396,1.3382,1.338,1.3403,1.3406,1.3409,1.3452,1.3414,1.3416,1.3417,1.3509,1.3511,1.3512,0,0,0,0,0,0,1.3339,1.3344,1.3387,1.3366,1.3371,1.3373,1.3386,1.3386,1.3393,1.3397,1.3397,1.339,1.3402,1.3406,1.3434,1.3452,1.3417,1.3419,1.3507,1.3509,1.3511,1.3538,0,0,0,0,0,0,1.3337,1.3344,1.3358,1.3367,1.3373,1.3412,1.3388,1.3387,1.3397,1.3395,1.3404,1.3405,1.3402,1.3431,1.3436,1.3454,1.342,1.3506,1.3508,1.3511,1.3536,1.3541,1.3545,0,0,0,0,0,1.3335,1.3365,1.3359,1.3364,1.339,1.3413,1.3416,1.3412,1.3399,1.3412,1.3415,1.3404,1.345,1.3434,1.3439,1.3459,1.3505,1.3508,1.351,1.3533,1.354,1.3545,0,0,0,0,0,0,1.3358,1.3366,1.3359,1.3393,1.3402,1.341,1.3427,1.3419,1.3433,1.343,1.3425,1.3427,1.3456,1.346,1.3443,1.3494,1.3475,1.3479,1.3491,1.3497,1.3501,1.3499,1.3422,0,0,0,0,0,1.3366,1.3385,1.3391,1.3419,1.3425,1.3425,1.3435,1.3431,1.3441,1.3445,1.3449,1.3459,1.3475,1.3486,1.3502,1.3536,1.3538,1.3552,1.3557,1.3561,1.3564,1.3583,1.3589,1.3522,1.3522,1.3522,0,0,1.3385,1.3391,1.3403,1.3424,1.3431,1.345,1.3429,1.3449,1.3463,1.3448,1.3474,1.3478,1.3489,1.352,1.3534,1.3524,1.3584,1.3565,1.3568,1.3569,1.3586,1.3593,1.3598,1.3524,1.3523,1.3523,0,0,1.3427,1.3435,1.3459,1.3467,1.3478,1.3478,1.3484,1.3493,1.3495,1.3521,1.351,1.3526,1.3555,1.3563,1.357,1.3616,1.3607,1.3622,1.3646,1.3664,1.367,1.3674,1.369,1.3696,1.3625,1.3625,1.3625,0,1.3448,1.3476,1.3472,1.3494,1.3503,1.3491,1.3515,1.3523,1.3538,1.3545,1.3534,1.3569,1.3576,1.3608,1.362,1.3627,1.3633,1.362,1.3669,1.3674,1.3678,1.3693,1.3699,1.3627,1.3627,1.3627,1.3626,0,1.3501,1.3521,1.3539,1.3555,1.3566,1.3589,1.3588,1.36,1.3596,1.3597,1.3624,1.3631,1.3648,1.3655,1.3651,1.3688,1.3681,1.367,1.365,1.3686,1.37,1.3706,1.3629,1.3629,1.3628,1.3628,0,0,1.3558,1.3572,1.3578,1.3585,1.3597,1.3611,1.3634,1.365,1.366,1.3671,1.369,1.3714,1.3704,1.3713,1.3709,1.3725,1.376,1.3712,1.3712,1.372,1.38,1.3808,1.3815,1.3754,1.3755,1.3756,1.3799,0,1.3601,1.364,1.3637,1.3673,1.3691,1.368,1.3699,1.3708,1.371,1.3725,1.3727,1.3744,1.373,1.3735,1.375,1.3753,1.3776,1.375,1.3771,1.3772,1.3768,1.3822,1.3831,1.3871,1.3805,1.3806,1.3806,0,1.3655,1.3669,1.3707,1.3716,1.3723,1.3741,1.3755,1.377,1.378,1.378,1.379,1.3784,1.3806,1.3787,1.3817,1.3799,1.3808,1.381,1.3812,1.3813,1.3791,1.3824,1.3884,1.3889,1.3815,1.3814,1.3814,0,1.3692,1.372,1.3746,1.3753,1.3764,1.3776,1.3781,1.379,1.38,1.3813,1.3819,1.3834,1.3843,1.3854,1.3853,1.3839,1.3883,1.3863,1.3884,1.3884,1.3893,1.3892,1.3954,1.39,1.39,1.39,1.39,0,1.374,1.3763,1.3763,1.3779,1.3805,1.3802,1.3828,1.3831,1.3839,1.3856,1.3847,1.3863,1.386,1.3875,1.3874,1.3899,1.3903,1.3904,1.3903,1.3904,1.3904,1.3909,1.3906,1.3901,1.3901,1.3901,1.39,0,1.3785,1.3786,1.3814,1.3822,1.3825,1.3844,1.3851,1.3866,1.3867,1.3888,1.3893,1.3895,1.3912,1.3912,1.3932,1.3931,1.3962,1.3958,1.3959,1.3957,1.3978,1.3976,1.4044,1.4053,1.3994,1.3994,1.3995,0,1.3815,1.3833,1.3843,1.3854,1.386,1.3877,1.3887,1.3885,1.3895,1.3908,1.3922,1.3939,1.3952,1.3981,1.3984,1.4,1.3996,1.4019,1.3998,1.3999,1.3996,1.3994,1.3996,1.4023,1.4023,1.4024,1.4024,0,1.3868,1.3867,1.3883,1.3898,1.391,1.3922,1.3933,1.3942,1.3941,1.3953,1.3971,1.3982,1.4002,1.4019,1.4034,1.4039,1.4031,1.4031,1.4036,1.4037,1.4037,1.4037,1.3969,1.4029,1.4029,1.4028,1.4028,1.4028,1.3906,1.3921,1.3931,1.3948,1.3956,1.3967,1.3981,1.3984,1.4,1.4016,1.4014,1.4034,1.4043,1.4062,1.4069,1.4085,1.4076,1.4084,1.4086,1.4088,1.409,1.4035,1.4087,1.4087,1.4087,1.4087,1.4087,0,1.3958,1.3964,1.398,1.3995,1.4009,1.4001,1.4012,1.4024,1.4042,1.4051,1.4065,1.4086,1.4102,1.4107,1.4122,1.4134,1.4131,1.4138,1.4137,1.4138,1.4097,1.409,1.414,1.414,1.414,1.414,1.414,1.414,1.3987,1.4012,1.4013,1.4042,1.4048,1.4068,1.4075,1.4084,1.4092,1.4115,1.4129,1.4132,1.4139,1.4156,1.417,1.4171,1.4177,1.4186,1.4185,1.4146,1.4141,1.4136,1.413,1.4187,1.4187,1.4225,1.4225,1.4226]},{"header":{"parameterUnit":"m.s-1","parameterCategory":1,"la1":30.2991,"la2":30.254,"lo1":-89.0895,"lo2":-89.0444,"dy":0.0017,"dx":0.0017,"nx":28,"ny":28,"refTime":"2023-08-28T09:00:00:Z","depth":0,"parameterNumber":3,"parameterNumberName":"V-component_of_WINDS"},"data":[0,0,0,0,0,0,0,0,0,0,0,0,0,0,0,0,0,0,0,0,0,0,0,0,0,0,0,0,0,0,0,0,0,0,0,0,0,0,0,0,0,0,0,0,0,0,0,0,0,0,0,0,0,0,0,0,0,0,0.3093,0.3097,0,0.3399,0.3402,0.3406,0.3497,0.3495,0.3494,0.3492,0.3807,0.3816,0.3826,0,0,0,0,0,0,0,0,0,0,0,0,0,0.2592,0.26,0.3093,0.3097,0.3101,0.3398,0.3402,0.3406,0.3497,0.3495,0.3493,0.3492,0.3803,0.3815,0.3827,0,0,0,0,0,0,0,0,0,0,0,0,0,0.2844,0.2603,0.3092,0.3182,0.3193,0.3397,0.3402,0.3408,0.3498,0.3495,0.3493,0.3491,0.38,0.3814,0.3828,0.3966,0,0,0.3873,0.388,0,0,0,0,0,0,0,0,0.283,0.2863,0.3165,0.3176,0.3189,0.3407,0.3341,0.3595,0.3498,0.3382,0.3492,0.349,0.3676,0.37,0.3763,0.3981,0.3995,0.3875,0.3884,0.389,0.3894,0,0,0,0,0,0,0,0.2812,0.285,0.3214,0.3169,0.3184,0.3208,0.3241,0.3389,0.3538,0.3392,0.3399,0.3434,0.3682,0.3749,0.3771,0.3999,0.3874,0.3887,0.3897,0.3902,0.4348,0.435,0,0,0,0,0,0,0.2779,0.2835,0.3204,0.3223,0.3,0.3218,0.3256,0.334,0.3537,0.3565,0.3436,0.3437,0.3725,0.3754,0.3782,0.3959,0.389,0.3904,0.3912,0.4345,0.4348,0.4352,0,0,0,0,0,0,0.2768,0.2811,0.3192,0.3031,0.3082,0.323,0.3323,0.3347,0.3414,0.357,0.3597,0.3476,0.3724,0.3762,0.392,0.3971,0.391,0.3924,0.4341,0.4346,0.435,0.431,0,0,0,0,0,0,0.2753,0.2807,0.286,0.3032,0.309,0.3324,0.3326,0.3354,0.3439,0.3443,0.3615,0.3642,0.3725,0.3898,0.3935,0.399,0.3935,0.4337,0.4343,0.4348,0.4308,0.4313,0.4317,0,0,0,0,0,0.2735,0.2837,0.2862,0.2906,0.3159,0.3327,0.336,0.3453,0.3442,0.3498,0.3598,0.3636,0.3959,0.3913,0.3956,0.4016,0.4335,0.4342,0.4348,0.4306,0.4312,0.4317,0,0,0,0,0,0,0.2667,0.2861,0.2891,0.3051,0.3172,0.3342,0.3414,0.3456,0.3583,0.3582,0.3693,0.3731,0.3882,0.3965,0.3911,0.4161,0.4148,0.4163,0.4101,0.4108,0.4113,0.409,0.3948,0,0,0,0,0,0.2671,0.279,0.2953,0.3078,0.3137,0.3265,0.3341,0.3403,0.3532,0.3584,0.3696,0.3821,0.3951,0.4034,0.4162,0.432,0.4359,0.4382,0.4387,0.439,0.4402,0.4493,0.4506,0.4374,0.4374,0.4373,0,0,0.268,0.28,0.2868,0.3068,0.3168,0.329,0.3307,0.3435,0.3527,0.3604,0.3761,0.3847,0.3994,0.4153,0.4229,0.4227,0.4447,0.4398,0.4399,0.4411,0.4502,0.4514,0.4525,0.4378,0.4377,0.4377,0,0,0.2758,0.2861,0.2977,0.3078,0.323,0.3314,0.3342,0.3506,0.3567,0.3726,0.3786,0.3897,0.4118,0.4221,0.4301,0.4419,0.446,0.4458,0.4483,0.4571,0.4581,0.4591,0.4634,0.4649,0.447,0.447,0.447,0,0.2751,0.2936,0.3032,0.3158,0.3244,0.3318,0.3438,0.3531,0.3717,0.3775,0.377,0.405,0.4154,0.4338,0.4367,0.443,0.4466,0.4439,0.4571,0.4582,0.4593,0.4636,0.4652,0.4469,0.4469,0.4469,0.4469,0,0.2919,0.3047,0.3123,0.33,0.3396,0.3517,0.3633,0.3718,0.3771,0.3856,0.4018,0.4145,0.43,0.4349,0.4402,0.4542,0.4536,0.4549,0.4539,0.4603,0.4645,0.4662,0.4467,0.4467,0.4468,0.4468,0,0,0.2964,0.3194,0.322,0.3302,0.3476,0.3577,0.3702,0.3854,0.3925,0.4051,0.416,0.4345,0.436,0.4451,0.4517,0.4593,0.4681,0.4599,0.4604,0.4611,0.4844,0.4834,0.4851,0.4708,0.4711,0.4714,0.4833,0,0.3066,0.3293,0.3384,0.3568,0.3688,0.3761,0.3871,0.3989,0.4072,0.4187,0.4279,0.4409,0.4417,0.4473,0.4552,0.4653,0.4729,0.4646,0.4812,0.4816,0.4774,0.4873,0.4862,0.4968,0.485,0.4852,0.4855,0,0.3215,0.3342,0.3538,0.3699,0.3752,0.3849,0.3996,0.4104,0.4241,0.4296,0.4399,0.446,0.4595,0.4575,0.4764,0.4705,0.4779,0.4838,0.4845,0.4865,0.484,0.4897,0.5004,0.502,0.4881,0.4879,0.4877,0,0.323,0.345,0.3597,0.3664,0.3854,0.3921,0.4003,0.4138,0.4223,0.4352,0.4409,0.4552,0.463,0.4739,0.4838,0.4814,0.5018,0.5006,0.5069,0.5066,0.511,0.5106,0.5231,0.5154,0.5154,0.5153,0.5153,0,0.3335,0.3452,0.3606,0.3696,0.383,0.3934,0.4064,0.4152,0.4271,0.438,0.4451,0.4552,0.4675,0.4792,0.487,0.5016,0.505,0.5099,0.5119,0.5094,0.5088,0.5144,0.514,0.5158,0.5157,0.5156,0.5155,0,0.3374,0.3482,0.3646,0.3813,0.3857,0.3949,0.4092,0.4183,0.4269,0.4407,0.4445,0.4581,0.4722,0.4831,0.5015,0.5067,0.5222,0.5242,0.5176,0.5186,0.5243,0.5237,0.541,0.5439,0.5341,0.5342,0.5342,0,0.3435,0.3527,0.3704,0.3782,0.3863,0.3988,0.4076,0.4182,0.4271,0.4434,0.4505,0.4652,0.4775,0.4998,0.5114,0.5255,0.528,0.5331,0.5302,0.5274,0.5283,0.5277,0.5287,0.5335,0.5335,0.5336,0.5336,0,0.3531,0.358,0.3704,0.3847,0.395,0.4068,0.4187,0.4247,0.4375,0.4471,0.4617,0.4712,0.49,0.5045,0.5199,0.5285,0.5333,0.5344,0.5367,0.5343,0.5301,0.5326,0.5188,0.534,0.534,0.534,0.5339,0.5339,0.3585,0.3671,0.3809,0.3945,0.4046,0.4156,0.425,0.4348,0.4471,0.4632,0.4687,0.4837,0.4973,0.5184,0.5271,0.5391,0.5392,0.5424,0.5433,0.5439,0.5438,0.5281,0.5419,0.5419,0.5419,0.5419,0.5419,0,0.3686,0.3779,0.3903,0.4068,0.4175,0.421,0.4344,0.4432,0.4563,0.4685,0.4805,0.4973,0.5114,0.5241,0.5388,0.546,0.5485,0.5495,0.5492,0.5511,0.5427,0.5394,0.5472,0.5472,0.5472,0.5472,0.5472,0.5472,0.3752,0.39,0.3965,0.4164,0.4256,0.4404,0.4477,0.458,0.4678,0.4862,0.498,0.5061,0.5186,0.5343,0.5475,0.5508,0.556,0.5564,0.5603,0.5523,0.5517,0.551,0.548,0.5574,0.5574,0.5678,0.5678,0.5679]}]]